Flag for Spain Weather past 2 weeks in Almería, Spain

Now
78 °F

Warm.


Feels Like: 80 °F
Forecast: 68 / 83 °F
Wind: 3 mph from Southwest

Location: Almeria / Aeropuerto

Current Time: Sep 1, 2015 at 2:38:15 AM

Latest Report: Sep 1, 2015 at 2:00 AM


Visibility: N/A

Pressure: 29.98 "Hg

Humidity: 83%

Dew point: 72 °F

Location of AlmeríaLocation

Historic Weather in Almería — Graph

°F

Almería temperature yesterday

Maximum temperature yesterday: 87 °F (at 4:00 PM)
Minimum temperature yesterday: 78 °F (at 8:00 AM)
Average temperature yesterday: 82 °F

Past Weeks' High & Low Weather Summary

 TemperatureHumidityPressure
High96 °F (Aug 21, 4:00 PM)86% (Aug 23, 7:00 AM)30.13 "Hg (Aug 23, 7:00 AM)
Low67 °F (Aug 24, 7:00 AM)22% (Aug 21, 4:00 PM)29.78 "Hg (Aug 23, 7:00 PM)
Average81 °F64%29.97 "Hg
* Reported Aug 17 1:00 AM — Sep 1 1:00 AM, Almería, Weather by CustomWeather, © 2015

Note: Actual official high and low records may vary slightly from our data, if they occured in-between our weather recording intervals... More about our weather records

Advertising

Almería weather history for previous 24 hours

 ConditionsComfort  
Time TempWeatherWind HumidityBarometerVisibility
1:00 AM
Tue, Sep 1
78 °FWarm.6 mph84%29.98 "HgN/A
12:00 AM79 °FWarm.7 mph79%29.97 "HgN/A
10:00 PM
Mon, Aug 31
79 °FWarm.10 mph83%29.95 "HgN/A
9:00 PM80 °FWarm.10 mph82%29.93 "HgN/A
8:00 PM81 °FOvercast.12 mph81%29.92 "Hg12 mi
7:00 PM82 °FWarm.2 mph77%29.89 "HgN/A
5:00 PM83 °FScattered clouds.8 mph75%29.95 "Hg12 mi
4:00 PM87 °FWarm.8 mph68%29.96 "HgN/A
3:00 PM86 °FWarm.10 mph69%29.97 "HgN/A
2:00 PM87 °FPassing clouds.12 mph67%29.99 "Hg16 mi
1:00 PM85 °FWarm.13 mph68%30.00 "HgN/A
12:00 PM85 °FWarm.8 mph68%29.99 "HgN/A
11:00 AM86 °FPassing clouds.6 mph60%29.99 "Hg16 mi
10:00 AM82 °FWarm.3 mph65%29.98 "HgN/A
9:00 AM80 °FWarm.3 mph71%29.97 "HgN/A
8:00 AM78 °FPassing clouds.5 mph75%29.96 "Hg19 mi
7:00 AM81 °FWarm.5 mph63%29.97 "HgN/A
6:00 AM79 °FWarm.6 mph70%29.96 "HgN/A
5:00 AM80 °FPassing clouds.9 mph73%29.98 "Hg16 mi
4:00 AM79 °FWarm.1 mph78%30.01 "HgN/A
3:00 AM80 °FWarm.3 mph77%30.01 "HgN/A
2:00 AM81 °FWarm.6 mph72%30.03 "HgN/A
Weather by CustomWeather, © 2015

See weather overviewHow to use our weather pages